{"data":{"norad_id":62381,"intl_designator":"2024-247E","name":"HAWK-11C","alt_names":[],"object_type":"PAYLOAD","status":"ACTIVE","operator":null,"country":"US","launch_date":"2024-12-21","launch_site_code":"AFWTR","launch_vehicle":null,"mission":null,"orbit_class":"UNKNOWN","rcs_meters":null,"size_class":null,"mass_kg":null,"dimensions":null,"purposes":[],"wikipedia_slug":null,"has_3d_model":false,"image_url":null,"decayed_at":null,"tle_current":{"epoch":"2026-05-24T19:09:04.620096Z","epoch_age_seconds":99384,"freshness":"FRESH","line1":"1 62381U 24247E   26144.79797014  .00005743  00000+0  20432-3 0  9992","line2":"2 62381  45.0051  57.2547 0003714  76.8953 283.2346 15.29973254 79427","mean_motion":15.29973254,"eccentricity":0.0003714,"inclination_deg":45.0051,"raan_deg":57.2547,"arg_perigee_deg":76.8953,"mean_anomaly_deg":283.2346,"bstar":0.00020432,"rev_number":7942,"period_min":94.119292362479,"perigee_km":473.34658928061,"apogee_km":478.43776215233,"semimajor_km":6854.0291757165,"source":"CELESTRAK","updated_at":"2026-05-25T13:38:02.944632Z"}}}